{"data":{"norad_id":40061,"epoch":"2026-09-20T04:29:02.378112Z","epoch_age_seconds":64388,"freshness":"FRESH","line1":"1 40061U 14036A   26263.18683308 -.00000036  00000+0 -33208-3 0  9990","line2":"2 40061  82.5061 248.5563 0028826 303.6614  56.1717 12.42987393554253","mean_motion":12.42987393,"eccentricity":0.0028826,"inclination_deg":82.5061,"raan_deg":248.5563,"arg_perigee_deg":303.6614,"mean_anomaly_deg":56.1717,"bstar":-0.00033208,"rev_number":55425,"period_min":115.84992801291,"perigee_km":1471.2725068749,"apogee_km":1516.6567471751,"semimajor_km":7872.101627025,"source":"CELESTRAK","updated_at":"2026-09-20T09:00:14.014391Z"}}